www.pogodaiklimat.ru

Погода и климат >> Архив погоды >> Россия >> Магаданская область >> Кегали


ПОГОДА в Кегали

  • Прогноз погоды в Кегали
  • Монитор погоды в Кегали

АРХИВ ПОГОДЫ в Кегали

Время (UTC), дата Ветер
(напр.,м/с)
 
Видим.   Явления Облачность Т
(С)
Тd
(С)
f
(%)
Тe
(С)
Тes
(С)
Комфортность P
(гПа)
Po
(гПа)
Тmin
(С)
Tmax
(С)
R
(мм)
R24
(мм)
S
(см)
15 11.04 Ю 1 н/о н/о -23.0 -25.1 83 -26 -26 1015.7 965.3
18 11.04 Ю 1 50 км ясно -21.9 -24.1 82 -25 -25 1015.5 965.3
21 11.04 З 2 50 км ясно -17.8 -21.2 75 -23 -21 1013.7 964.3 -24.8 47
00 12.04 ЮЗ 3 50 км ясно -9.8 -15.7 62 -16 -10 1013.1 965.3
03 12.04 Ю 3 50 км 3/0
[Ci fib]
-4.8 -13.6 50 -10 -5 1010.8 964.0
06 12.04 Ю 3 50 км ясно -3.5 -13.7 45 -8 -6 1010.6 964.0
09 12.04 Ю 2 50 км 1/0
[Ci fib]
-7.5 -15.2 54 -12 -12 1011.3 964.0 -3.4
12 12.04 ЮВ 2 50 км ясно -14.2 -17.6 75 -19 -19 1013.9 965.3
15 12.04 ЮВ 2 50 км ясно -21.1 -22.9 85 -27 -27 1015.3 965.3
18 12.04 ЮВ 1 50 км 3/3 1000 м
[Sc]
-24.7 -27.1 80 -28 -28 1017.5 966.7
21 12.04 СЗ 1 50 км 8/0
[Ci fib]
-17.5 -21.0 74 -20 -18 1015.4 966.0 -25.2 47
00 13.04 ЮЗ 2 50 км 4/0
[Ci fib]
-9.0 -15.9 57 -13 -9 1014.4 966.7
03 13.04 СЗ 1 50 км 4/0
[Ci fib]
-4.2 -14.1 46 -6 -1 1013.6 966.7
06 13.04 СЗ 1 50 км 3/0
[Ci fib]
-3.5 -14.0 44 -5 -3 1013.4 966.7
09 13.04 Ю 1 50 км ясно -11.0 -15.9 67 -13 -13 1016.2 968.0 -3.3
12 13.04 ЮВ 2 50 км ясно -14.2 -17.3 77 -19 -19 1016.8 968.0
15 13.04 Ю 1 50 км ясно -22.7 -24.9 82 -26 -26 1019.8 969.3
18 13.04 ЮВ 1 50 км ясно -25.5 -28.1 79 -29 -29 1020.4 969.3
21 13.04 З 1 50 км 6/0
[Ci fib]
-17.4 -20.9 74 -20 -17 1018.8 969.2 -26.3 47
00 14.04 ЮЗ 3 50 км 3/0
[Ci fib]
-9.0 -15.5 59 -15 -10 1017.2 969.3
03 14.04 Ю 3 50 км ясно -2.6 -12.1 48 -7 -1 1016.0 969.3
06 14.04 Ю 3 50 км 3/0
[Ci fib]
-1.4 -12.1 44 -6 -4 1015.8 969.3
09 14.04 ЮВ 2 50 км ясно -6.4 -13.1 59 -10 -10 1018.1 970.7 -1.3
12 14.04 ЮВ 3 50 км 3/0
[Ci fib]
-10.6 -15.7 66 -16 -16 1018.9 970.7
15 14.04 ЮВ 2 50 км 3/0
[Ci fib]
-17.4 -20.0 80 -23 -23 1020.2 970.7
18 14.04 Ю 2 50 км 3/0
[Ci fib]
-21.7 -23.9 82 -28 -28 1021.1 970.7
21 14.04 Ю 2 50 км ясно -9.2 -14.2 67 -14 -11 1018.2 970.2 -21.8 47
00 15.04 Ю 4 50 км ясно -4.0 -10.4 61 -10 -5 1017.7 970.7
03 15.04 Ю 5 50 км ясно -1.9 -9.5 56 -8 -4 1015.9 969.3
06 15.04 Ю 5 50 км ясно -2.2 -9.3 58 -8 -7 1015.9 969.3
09 15.04 Ю 4 50 км 3/0
[Ci fib]
-4.9 -10.3 66 -11 -11 1017.9 970.7 -1.5
12 15.04 Ю 3 50 км 4/0
[Ci fib]
-7.9 -11.2 77 -14 -14 1018.4 970.7
15 15.04 ЮВ 3 50 км 8/1 1000 м
[Sc Ci fib]
-10.5 -13.0 82 -16 -16 1018.9 970.7
18 15.04 ЮВ 3 50 км 8/3 1000 м
[Sc Ci fib]
-9.8 -12.7 79 -16 -16 1018.8 970.7
21 15.04 Ю 3 50 км 10/10 1000 м
[Sc]
-6.4 -11.0 70 -12 -12 1017.6 970.1 -11.1 47
00 16.04 Ю 5 50 км 8/8 1000 м
[Sc]
-4.3 -12.0 55 -11 -10 1017.8 970.7
03 16.04 Ю 4 50 км 8/8 1000 м
[Sc]
-2.4 -11.4 50 -8 -6 1017.4 970.7
06 16.04 Ю 4 50 км 6 баллов -1.8 -11.1 49 -7 -6 1017.3 970.7
09 16.04 Ю 1 50 км 3/3 1000 м
[Sc]
-4.5 -11.7 57 -6 -6 1019.2 972.0 -1.8
12 16.04 Ю 3 50 км 6/6 1000 м
[Sc]
-8.7 -12.8 72 -14 -14 1019.9 972.0
15 16.04 Ю 2 50 км 4/4 1000 м
[Sc]
-13.5 -15.6 84 -18 -18 1022.2 973.3
18 16.04 ЮВ 2 50 км ясно -18.2 -19.8 87 -24 -24 1023.6 973.7
21 16.04 Ю 3 50 км ясно -9.8 -14.8 67 -16 -13 1024.3 976.0 -20.4 46
00 17.04 Ю 3 50 км ясно -3.7 -12.6 50 -8 -2 1023.2 976.0
03 17.04 ЮЗ 2 50 км 3/0
[Ci fib]
-0.8 -11.5 44 -4 +2 1022.7 976.0
06 17.04 Ю 3 50 км 3/0
[Ci fib]
-0.5 -12.1 41 -4 -3 1022.6 976.0
09 17.04 ЮВ 2 50 км 4/0
[Ci fib]
-5.2 -12.6 56 -9 -9 1024.8 977.3 +0.4
12 17.04 ЮВ 2 50 км 2 балла -11.4 -15.8 70 -16 -16 1026.0 977.3
15 17.04 ЮВ 2 50 км ясно -16.9 -19.2 82 -22 -22 1027.1 977.3
18 17.04 Ю 1 50 км 4 балла -22.6 -24.9 81 -26 -26 1028.2 977.3
21 17.04 Ю 1 50 км 8/0
[Ci fib]
-11.2 -16.6 64 -13 -12 1026.0 977.3 -22.6 46
00 18.04 Ю 3 50 км 8/0
[Ci fib]
-3.0 -13.0 46 -7 -6 1021.7 974.7
03 18.04 ЮВ 7-11
{11}
50 км 9/3 1000 м
[Sc Ci fib]
-0.5 -12.7 39 -7 -7 1019.8 973.3
06 18.04 Ю 4
{11}
50 км 8/3 1000 м
[Sc Ci fib]
-0.8 -11.5 44 -6 -5 1017.1 970.7
09 18.04 Ю 4
{10}
50 км 9/6 1000 м
[Sc Ci fib]
-1.8 -11.1 49 -7 -7 1018.7 972.0 -0.1
12 18.04 Ю 6 50 км 10 баллов -2.6 -9.1 61 -9 -9 1018.8 972.0

 

Местоположение метеостанции Кегали (Магаданская область, Россия): широта 64.25 долгота 161.00 высота над уровнем моря 374 м.

В архиве по умолчанию представлена погода в Кегали за последнюю неделю. Архивные данные за месяц целиком и за предыдущие месяцы, начиная с января 2011 года, Вы можете получить, выбрав интересующий диапазон дат из раскрывающегося списка и нажав кнопку "Ввод!".


*Определитесь, кто Вы:
робот инопланетянин человек

Внимание! Время в таблицах - всемирное. Для получения местного времени необходимо прибавить поправку, которая равна 11 ч.

Смотрите также архив погоды в соседних городах и на ближайших метеорологических станциях:

Погода в Омолоне (Чукотка, Россия) (112 км)
Погода в Верхне-Пенжино (Камчатский край, Россия) (155 км)
Погода в Лабазной (Магаданская область, Россия) (162 км)
Погода в Эвенске (Магаданская область, Россия) (275 км)
Погода в Баимке (Чукотка, Россия) (294 км)
Погода в Омсукчане (Магаданская область, Россия) (323 км)
Погода в Каменском (Камчатский край, Россия) (325 км)
Погода в Балыгычане (Магаданская область, Россия) (337 км)
Погода в Коркодоне (Магаданская область, Россия) (344 км)
Погода в Слаутном (Камчатский край, Россия) (354 км)

Пояснения к столбцам:

Ветер - указаны скорость ветра в м/с - средняя за 10 мин, порывы в срок и между сроками (в фигурных скобках) и направление, откуда дует ветер: С - северный, СВ - северо-восточный, В - восточный, ЮВ - юго-восточный, Ю - южный, ЮЗ - юго-западный, З - западный, СЗ - северо-западный.
Видимость - горизонтальная дальность видимости в метрах или километрах. При видимости от 1 до 10 км при отсутствии осадков обычно наблюдается дымка, при ухудшении видимости до 1 км и менее - туман. В сухую погоду видимость может ухудшаться дымом, пылью или мглою.
Явления - указаны атмосферные явления, наблюдавшиеся в срок или в последний час перед сроком; фигурными скобками обозначены явления, наблюдавшиеся между сроками (за 1-3 часа до срока); квадратными скобками обозначены град или гололедные отложения с указанием их диаметра в мм.
Облачность - указаны через наклонную черту общая и нижняя облачность в баллах и высота нижней границы облаков в метрах; квадратными скобками обозначены формы облаков: Ci - перистые, Cs - перисто-слоистые, Cc - перисто-кучевые, Ac - высококучевые, As - высокослоистые, Sc - слоисто-кучевые, Ns - слоисто-дождевые, Cu - кучевые, Cb - кучево-дождевые. Подробнее классификацию облаков см. в Атласе облаков (PDF).
T - Температура воздуха - температура, измеренная на высоте 2 м над землей.
Td - Температура точки росы - температура, при понижении до которой содержащийся в воздухе водяной пар достигнет насыщения.
f - Относительная влажность воздуха - влажноcть воздуха, измеренная на высоте 2 м над землей.
Te - Эффективная температура - температура, которую ощущает одетый по сезону человек в тени. Характеристика душности погоды. При расчете учитывается влияние влажности воздуха и скорости ветра на теплоощущения человека.
Tes - Эффективная температура на солнце - температура, которую ощущает человек, с поправкой на солнечный нагрев. Характеристика знойности погоды. Зависит от высоты солнца над горизонтом, облачности и скорости ветра. Ночью, в пасмурную погоду, а также при ветре 12 м/с и более поправка равна нулю.
P - Атмосферное давление - приведенное к уровню моря атмосферное давление.
Po - Атмосферное давление - измеренное на уровне метеостанции атмосферное давление.
Tmin - Минимальная температура - минимум температуры воздуха на высоте 2 м над землей.
Tmax - Максимальная температура - максимум температуры воздуха на высоте 2 м над землей.
R - Количество осадков - Количество выпавших осадков за период времени, мм. При наведении курсора мыши на число - период времени, за который выпало указанное количество осадков.
R24 - Количество осадков - Количество выпавших осадков за 24 часа, мм.
S - Снежный покров - Высота снежного покрова, см. При наведении курсора мыши на число - состояние снежного покрова и степень покрытия местности в баллах.